User: anonymous   Login
Location: Caltech
(34.1382°N, 118.1253°W)
Time: 21:53:53
(UTC-07:00)
Language:

Cosmos 1484 Rocket - Orbit

View from above orbital plane
View from above orbital plane
View from above satellite
View from above satellite

Ground track
Ground track

The orbit data is extracted from the following two-line orbital elements,

1 14208U 83075B   16242.17457238  .00000486  00000-0  33109-4 0  9998
2 14208  97.3530 258.6369 0041214  59.7495 300.7805 15.10040016803433
Epoch (UTC): 29 August 2016 04:11:23
Eccentricity: 0.0041214
inclination: 97.3530°
perigee height: 507 km
apogee height: 564 km
right ascension of ascending node: 258.6369°
argument of perigee: 59.7495°
revolutions per day: 15.10040016
mean anomaly at epoch: 300.7805°
orbit number at epoch: 80343

The dashed part of the orbit path shows where the satellite is in the earth's shadow,  

DLR